Tracking 19176 objects as of 26-May-2018
HD Live streaming from Space Station
objects crossing your sky now

ATLAS 5 CENTAUR R/B

Track ATLAS 5 CENTAUR R/B now!
10-day predictions


NORAD ID: 40978
Int'l Code: 2015-058Q
Perigee: 497.1 km
Apogee: 771.8 km
Inclination: 64.8 °
Period: 97.3 minutes
Semi major axis: 7005 km
RCS: Unknown
Launch date: October 8, 2015
Source: United States (US)
Launch site: AIR FORCE WESTERN TEST RANGE (AFWTR)

Note: This is a ROCKET BODY
aabbcc
Your satellite tracking list
Your tracking list is empty




NASA's NSSDC Master Catalog

Two Line Element Set (TLE):
1 40978U 15058Q   18144.07047086 0.00000300  00000-0  27879-4 0    00
2 40978  64.7781 242.3509 0196000 326.0033  33.9967 14.80636119    07
Source of the keplerian elements: McCants